This is the latest recevied weather packets stored in our database for station/object ED1ZAI-13. If no packets are shown the sender has not sent any weather packets the latest 10 day(s).
| Time | Temp. | Humidity | Pressure | Rain* | Wind** | Luminosity | Snow |
|---|---|---|---|---|---|---|---|
| 1777852867 | 11.67° C | 78% | 1011.8 hPa | 0 mm | - | - | - |
| 1777852266 | 11.67° C | 77% | 1011.8 hPa | 0 mm | - | - | - |
| 1777851668 | 11.67° C | 78% | 1012 hPa | 0 mm | - | - | - |
| 1777851068 | 11.67° C | 78% | 1011.9 hPa | 0 mm | - | - | - |
| 1777850468 | 11.67° C | 78% | 1011.9 hPa | 0 mm | - | - | - |
| 1777849867 | 11.67° C | 79% | 1012 hPa | 0 mm | - | - | - |
| 1777849267 | 11.67° C | 79% | 1012 hPa | 0 mm | - | - | - |
| 1777848667 | 11.67° C | 78% | 1011.8 hPa | 0 mm | - | - | - |
| 1777848068 | 11.67° C | 77% | 1012 hPa | 0 mm | - | - | - |
| 1777847468 | 12.22° C | 76% | 1012 hPa | 0 mm | - | - | - |
| 1777846868 | 12.22° C | 76% | 1012 hPa | 0 mm | - | - | - |
| 1777846267 | 12.22° C | 79% | 1012.1 hPa | 0 mm | - | - | - |
| 1777845667 | 11.11° C | 79% | 1012.2 hPa | 0 mm | - | - | - |
| 1777842068 | 11.11° C | 80% | 1012.3 hPa | 0 mm | - | - | - |
| 1777841468 | 11.11° C | 80% | 1012.3 hPa | 0 mm | - | - | - |
| 1777840868 | 11.67° C | 78% | 1012.1 hPa | 0 mm | - | - | - |
| 1777840267 | 12.22° C | 73% | 1011.8 hPa | 0.51 mm | - | - | - |
| 1777839667 | 12.78° C | 73% | 1011.6 hPa | 0.51 mm | - | - | - |
| 1777839067 | 12.78° C | 74% | 1011.5 hPa | 0.51 mm | - | - | - |
| 1777838467 | 12.22° C | 73% | 1011.4 hPa | 0.51 mm | - | - | - |
| 1777837867 | 12.22° C | 73% | 1011.4 hPa | 0.51 mm | - | - | - |
| 1777837267 | 12.78° C | 72% | 1011.2 hPa | 0.51 mm | - | - | - |
| 1777836668 | 12.22° C | 74% | 1011.5 hPa | 0 mm | - | - | - |
| 1777836067 | 12.78° C | 73% | 1011.3 hPa | 0 mm | - | - | - |
| 1777835467 | 12.78° C | 70% | 1011.1 hPa | 0 mm | - | - | - |
* Rain latest hour (hover to see other rain measurements)
** Current wind speed in m/s (hover to see current wind gust speed)